Terug naar catalogus

STARLINK-31108

ActiefCommunicatieVLEO
NORAD 58738·PAYLOAD·🇺🇸 United States

Gelanceerd Jan 7, 2024 vanaf Cape Canaveral Space Force Station

Loading…

Volgende Passages (komende 24 uur)

TLE

VersSource: CelesTrak SupGP

Epoch: Sep 14, 2026, 22:15 UTC

1 58738C 24005L   26257.92756944  .00020721  00000+0  75056-3 0  2574
2 58738  43.0019 230.8875 0001303 257.2563 217.8509 15.27566415    15

Volg STARLINK-31108 in realtime met AllMySat

Download on the App Store